STARLINK-31898, 59905

Orbit data source: Space-Track

STARLINK-31898, 59905 is a payload satellite owned by SpaceX/Seattle (US) in LEO that was launched on Tue, 28 May 2024 UTC via an FALCON 9 launch vehicle from the Air Force Eastern Test Range (AFETR). Payload-class satellites include a variety of spacecraft equipped with specific instruments for various scientific and technological missions. These include communications satellites like Starlink; space stations such as the ISS; scientific satellites like the Hubble; Earth observation satellites from companies like Planet Labs, Umbra, and HawkEye 360; GPS; miniature CubeSats for education and research; and military/defense satellites.

Loading next visibility...
Identifier
59905, 2024-100W
Orbit
LEO
Country
Flag of USUS
Related business
Manufacturer
SpaceX/Seattle
Mission
Operational Commercial Communications
Bus & Motor
STARLINK V2M, Unknown motor
Mass
730 kg wet, ~700 kg dry
Launch date (UTC)
2024-05-28 (1 year ago)
Launch vehicle
FALCON 9
Launch site
Air Force Eastern Test Range (AFETR)
Object type
Payload
Rocket body
Debris
Shape & HBR
Box + 2 Pan, 17.7 m
Radar Cross Section
33.884 m², Large (>1 m²)

Expand to show TLE details & history
Last TLE update: 8 hours ago

TLE from 8 hours ago
0 STARLINK-31898
1 59905U 24100W   25297.66633426  .00001510  00000-0  64386-4 0  9994
2 59905  42.9976 170.1417 0000627 293.3812  66.6974 15.27576954 80389
Epoch: 2025-10-24T15:59Z
TLE epoch observation values (Epoch: 2025-10-24T15:59:31.280Z)
Latitude
0.00003°
Longitude
-103.04656°
Altitude
482.663 km
Speed
7.626 km/s
True Right ascension
11h 20m 34s
True Declination
0° 00' 00"
Sunlit
Object was in daylight at epoch
Visualization orbit readout
Latitude
Unknown
Longitude
Unknown
Altitude
Unknown
Speed
Unknown
Apparent Right ascension
Unknown
Apparent Declination
Unknown
Sunlit
N/A
Visualization observer readout
Local Sidereal Time
19:27:46
Azimuth
Unknown
Elevation
Unknown
Doppler factor
Unknown
Orbital elements
Apogee altitude
485.434 km
Perigee altitude
484.573 km
Semi-major axis
6,863.141 km
Eccentricity
0.00006
Inclination
42.9976°
RAAN
170.1417°
Arg. of periapsis
293.3812°
True anomaly
66.704°
Mean anomaly
66.6974°
Eccentric anomaly
66.7007°
Mean motion
3.81732 °/min
Orbital period
94.31 mins
BSTAR
0.000064386
Loading maneuver chart data...
Computing Atmospheric mass density...
Loading historical data...
Loading historical data...
Loading historical data...
Loading historical data...
Loading historical data...
Loading historical data...
Loading historical data...

Documentation

Showing up to 5 results
|